[[{"header":{"parameterUnit":"m.s-1","parameterCategory":1,"la1":30.2991,"la2":30.254,"lo1":-89.0895,"lo2":-89.0444,"dy":0.0017,"dx":0.0017,"nx":28,"ny":28,"refTime":"2023-04-03T21:00:00:Z","depth":0,"parameterNumber":2,"parameterNumberName":"U-component_of_WINDS"},"data":[0,0,0,0,0,0,0,0,0,0,0,0,0,0,0,0,0,0,0,0,0,0,0,0,0,0,0,0,0,0,0,0,0,0,0,0,0,0,0,0,0,0,0,0,0,0,0,0,0,0,0,0,0,0,0,0,0,0,0.1592,0.1591,0,0.1563,0.1563,0.1562,0.1511,0.151,0.1509,0.1508,0.148,0.148,0.1481,0,0,0,0,0,0,0,0,0,0,0,0,0,0.1604,0.1604,0.1592,0.1591,0.1591,0.1563,0.1563,0.1562,0.1511,0.151,0.1509,0.1507,0.148,0.148,0.1481,0,0,0,0,0,0,0,0,0,0,0,0,0,0.1589,0.1604,0.1592,0.1562,0.1559,0.1563,0.1563,0.1562,0.1511,0.151,0.1508,0.1507,0.148,0.148,0.1481,0.1512,0,0,0.1482,0.1482,0,0,0,0,0,0,0,0,0.159,0.1589,0.1567,0.1564,0.1561,0.1539,0.1557,0.1545,0.1512,0.1529,0.1508,0.1506,0.1501,0.15,0.1497,0.1511,0.151,0.1482,0.1482,0.1482,0.1482,0,0,0,0,0,0,0,0.1591,0.159,0.158,0.1566,0.1563,0.155,0.1547,0.1554,0.1524,0.1528,0.1524,0.1521,0.1499,0.1497,0.1496,0.1509,0.1482,0.1482,0.1482,0.1482,0.1547,0.1549,0,0,0,0,0,0,0.1596,0.1591,0.1581,0.1579,0.1572,0.1552,0.1547,0.1547,0.1524,0.1519,0.1522,0.1519,0.1498,0.1496,0.1495,0.1531,0.1482,0.1482,0.1482,0.1546,0.1547,0.1549,0,0,0,0,0,0,0.1597,0.1596,0.1582,0.1584,0.1581,0.1553,0.1553,0.1548,0.1546,0.152,0.1514,0.1526,0.1496,0.1495,0.1508,0.1529,0.1482,0.1482,0.1544,0.1546,0.1548,0.1602,0,0,0,0,0,0,0.1597,0.1596,0.1608,0.1585,0.1581,0.1595,0.1555,0.1548,0.1546,0.1541,0.1522,0.1517,0.1495,0.1508,0.1509,0.1529,0.1483,0.1542,0.1545,0.1548,0.1598,0.1606,0.1613,0,0,0,0,0,0.1598,0.1624,0.1608,0.1607,0.1595,0.1597,0.1595,0.1569,0.1548,0.1559,0.1543,0.1518,0.1527,0.151,0.151,0.1531,0.154,0.1544,0.1547,0.1595,0.1604,0.1612,0,0,0,0,0,0,0.1651,0.1621,0.1603,0.1622,0.1612,0.1588,0.1601,0.1579,0.1576,0.1571,0.1539,0.1535,0.1553,0.1543,0.1525,0.156,0.153,0.1533,0.1566,0.1575,0.1582,0.1584,0.1483,0,0,0,0,0,0.1665,0.1668,0.1642,0.1661,0.1657,0.163,0.163,0.1611,0.16,0.1595,0.158,0.157,0.1571,0.1572,0.1571,0.1596,0.1592,0.161,0.1618,0.1624,0.1627,0.1641,0.1649,0.1561,0.1561,0.1561,0,0,0.1693,0.1677,0.1682,0.1672,0.1662,0.1667,0.1627,0.1634,0.1638,0.1596,0.1608,0.1596,0.1584,0.1603,0.1611,0.1595,0.1651,0.1628,0.1633,0.1634,0.1645,0.1654,0.1661,0.1563,0.1563,0.1562,0,0,0.1749,0.1736,0.1752,0.1743,0.1728,0.171,0.1714,0.1692,0.1683,0.1694,0.1663,0.1667,0.1669,0.1661,0.1658,0.171,0.1687,0.1711,0.1748,0.1761,0.1768,0.1774,0.1794,0.1801,0.1714,0.1714,0.1715,0,0.1786,0.1792,0.1763,0.1771,0.1768,0.1731,0.1746,0.1739,0.1725,0.1724,0.1706,0.1708,0.1697,0.1714,0.1727,0.1725,0.1729,0.1713,0.1769,0.1775,0.178,0.1799,0.1806,0.1717,0.1717,0.1717,0.1717,0,0.184,0.1844,0.1858,0.1845,0.1844,0.1856,0.1829,0.1831,0.1812,0.1796,0.1808,0.1793,0.1789,0.1791,0.1773,0.1807,0.1797,0.1775,0.1744,0.1792,0.1809,0.1816,0.1722,0.1721,0.172,0.1719,0,0,0.1928,0.1898,0.1904,0.1898,0.1879,0.1882,0.1893,0.1888,0.1891,0.1882,0.1891,0.1894,0.1873,0.1869,0.1849,0.1861,0.1904,0.1837,0.1836,0.1851,0.1941,0.1959,0.1967,0.1888,0.1889,0.189,0.1942,0,0.1979,0.1996,0.197,0.1992,0.1996,0.1961,0.197,0.196,0.1945,0.1947,0.1931,0.1934,0.1906,0.1903,0.1913,0.1897,0.1922,0.1892,0.1897,0.1898,0.1902,0.1976,0.1994,0.2044,0.1949,0.195,0.1951,0,0.2042,0.2036,0.2059,0.2039,0.204,0.2049,0.2042,0.2044,0.2032,0.2021,0.2017,0.1993,0.2003,0.1973,0.1986,0.1967,0.1967,0.1959,0.1961,0.1961,0.1928,0.1979,0.2059,0.2067,0.196,0.196,0.1959,0,0.2104,0.2103,0.2116,0.2112,0.2089,0.2096,0.2087,0.2073,0.2072,0.2067,0.2066,0.2062,0.206,0.2058,0.2035,0.2014,0.2051,0.2019,0.2043,0.2044,0.2053,0.2053,0.2136,0.2052,0.2052,0.2052,0.2052,0,0.2165,0.2181,0.2144,0.2153,0.2169,0.2139,0.2157,0.2144,0.2132,0.2138,0.2107,0.2114,0.2081,0.2085,0.2066,0.2081,0.208,0.2072,0.2067,0.2075,0.2076,0.2075,0.2071,0.2054,0.2053,0.2053,0.2053,0,0.2238,0.2214,0.2227,0.2203,0.2198,0.2212,0.2192,0.2199,0.2183,0.2191,0.2191,0.2165,0.2167,0.2143,0.214,0.2128,0.2151,0.214,0.2155,0.2152,0.2178,0.2176,0.2263,0.2274,0.2183,0.2184,0.2185,0,0.2278,0.229,0.2268,0.2269,0.2261,0.2264,0.2263,0.2234,0.2234,0.2222,0.2231,0.223,0.2228,0.2233,0.2215,0.2213,0.2202,0.2232,0.2201,0.2209,0.2203,0.2203,0.2204,0.2239,0.224,0.2241,0.2242,0,0.2353,0.2341,0.234,0.2335,0.2334,0.2329,0.2322,0.2326,0.2294,0.2296,0.2298,0.2296,0.2294,0.2294,0.2288,0.2279,0.2256,0.2252,0.2257,0.2266,0.2275,0.2271,0.2174,0.225,0.2249,0.2249,0.2248,0.2248,0.2411,0.242,0.2406,0.2406,0.2398,0.2392,0.2398,0.2382,0.2383,0.2378,0.2361,0.2366,0.2354,0.2344,0.2337,0.2341,0.2326,0.2334,0.2336,0.2339,0.2344,0.2274,0.234,0.234,0.234,0.2339,0.2339,0,0.2485,0.2474,0.2475,0.2466,0.2466,0.2444,0.2435,0.2437,0.2441,0.2432,0.2431,0.2433,0.2433,0.2414,0.2412,0.2419,0.2408,0.242,0.2419,0.2418,0.2357,0.2353,0.2428,0.2428,0.2428,0.2428,0.2428,0.2428,0.2523,0.2537,0.2523,0.2532,0.2521,0.2525,0.2522,0.2517,0.251,0.2513,0.2513,0.2501,0.2488,0.2485,0.2484,0.2479,0.248,0.2495,0.2486,0.243,0.2422,0.2414,0.2409,0.2496,0.2496,0.2547,0.2547,0.2547]},{"header":{"parameterUnit":"m.s-1","parameterCategory":1,"la1":30.2991,"la2":30.254,"lo1":-89.0895,"lo2":-89.0444,"dy":0.0017,"dx":0.0017,"nx":28,"ny":28,"refTime":"2023-04-03T21:00:00:Z","depth":0,"parameterNumber":3,"parameterNumberName":"V-component_of_WINDS"},"data":[0,0,0,0,0,0,0,0,0,0,0,0,0,0,0,0,0,0,0,0,0,0,0,0,0,0,0,0,0,0,0,0,0,0,0,0,0,0,0,0,0,0,0,0,0,0,0,0,0,0,0,0,0,0,0,0,0,0,4.5813,4.5813,0,4.5798,4.5797,4.5797,4.5741,4.574,4.5739,4.5737,4.5723,4.5723,4.5724,0,0,0,0,0,0,0,0,0,0,0,0,0,4.5793,4.5794,4.5813,4.5813,4.5812,4.5798,4.5797,4.5797,4.5741,4.574,4.5738,4.5737,4.5722,4.5723,4.5724,0,0,0,0,0,0,0,0,0,0,0,0,0,4.5792,4.5794,4.5813,4.5783,4.578,4.5798,4.5797,4.5797,4.5742,4.574,4.5738,4.5736,4.5722,4.5723,4.5724,4.577,0,0,4.5728,4.5729,0,0,0,0,0,0,0,0,4.5792,4.5793,4.5787,4.5785,4.5782,4.5769,4.5785,4.5788,4.5742,4.5756,4.5737,4.5735,4.574,4.5739,4.5741,4.5769,4.5769,4.5728,4.5729,4.5729,4.573,0,0,0,0,0,0,0,4.5792,4.5793,4.5807,4.5787,4.5784,4.577,4.5768,4.5785,4.5759,4.5755,4.5751,4.575,4.5738,4.574,4.574,4.5769,4.5728,4.5729,4.573,4.573,4.5833,4.5835,0,0,0,0,0,0,4.5797,4.5794,4.5807,4.5806,4.5782,4.5772,4.5769,4.5775,4.5759,4.5754,4.5751,4.5747,4.5739,4.5739,4.5739,4.5791,4.5729,4.573,4.5731,4.5831,4.5833,4.5835,0,0,0,0,0,0,4.5796,4.5798,4.5808,4.5799,4.5799,4.5774,4.5781,4.5776,4.5778,4.5756,4.5751,4.5758,4.5737,4.5738,4.5763,4.579,4.5731,4.5732,4.5828,4.5832,4.5834,4.5896,0,0,0,0,0,0,4.5796,4.5799,4.5816,4.58,4.58,4.5832,4.5783,4.5777,4.578,4.5774,4.5761,4.5757,4.5736,4.5761,4.5764,4.579,4.5733,4.5826,4.583,4.5833,4.5891,4.5901,4.5909,0,0,0,0,0,4.5796,4.5835,4.5817,4.5819,4.5821,4.5834,4.5834,4.5808,4.5782,4.58,4.5785,4.5757,4.5786,4.5764,4.5767,4.5794,4.5824,4.5829,4.5833,4.5887,4.5899,4.5908,0,0,0,0,0,0,4.5856,4.5832,4.5813,4.5847,4.5843,4.5824,4.5845,4.5821,4.5824,4.5819,4.5787,4.5784,4.5814,4.5806,4.5782,4.5837,4.58,4.5806,4.5841,4.5851,4.586,4.5861,4.5734,0,0,0,0,0,4.5873,4.5885,4.5863,4.5896,4.5895,4.587,4.5875,4.5855,4.585,4.5848,4.5835,4.5831,4.5838,4.5844,4.5851,4.589,4.5886,4.591,4.5918,4.5925,4.5931,4.595,4.596,4.585,4.585,4.585,0,0,4.5909,4.5897,4.5907,4.5908,4.5902,4.5915,4.5869,4.5885,4.5895,4.585,4.5873,4.5863,4.5856,4.5888,4.5902,4.5883,4.596,4.5931,4.5937,4.5938,4.5956,4.5966,4.5975,4.5853,4.5853,4.5852,0,0,4.598,4.5973,4.5999,4.5994,4.5985,4.5969,4.5975,4.5959,4.5951,4.5973,4.594,4.595,4.5965,4.5961,4.5961,4.6029,4.6004,4.6032,4.6077,4.6097,4.6105,4.6113,4.6137,4.6146,4.6037,4.6037,4.6037,0,4.6026,4.6045,4.6016,4.6033,4.6035,4.5994,4.602,4.6016,4.601,4.6012,4.5991,4.6007,4.6,4.603,4.6046,4.6048,4.6053,4.6034,4.6106,4.6114,4.612,4.6143,4.6152,4.6041,4.604,4.604,4.604,0,4.6101,4.6114,4.6136,4.6131,4.6134,4.6156,4.613,4.6137,4.6117,4.6102,4.6125,4.6114,4.6116,4.6122,4.6103,4.6149,4.6138,4.6112,4.6075,4.6135,4.6155,4.6164,4.6046,4.6044,4.6043,4.6043,0,0,4.6212,4.6189,4.6197,4.6194,4.6181,4.619,4.621,4.6212,4.6218,4.6215,4.623,4.6243,4.6218,4.6218,4.6198,4.6215,4.6269,4.6187,4.6186,4.6203,4.6319,4.6339,4.635,4.6252,4.6254,4.6255,4.632,0,4.628,4.6312,4.6286,4.6322,4.6334,4.6294,4.6311,4.6305,4.6291,4.6299,4.6284,4.6293,4.626,4.626,4.6275,4.626,4.6292,4.6255,4.6266,4.6267,4.627,4.6361,4.6382,4.6444,4.6328,4.6329,4.633,0,4.6364,4.6364,4.6402,4.6385,4.6389,4.6405,4.6404,4.6411,4.6403,4.6392,4.6391,4.6366,4.6383,4.6346,4.637,4.6345,4.6348,4.6341,4.6343,4.6343,4.6303,4.6364,4.6463,4.6473,4.6343,4.6342,4.6341,0,4.6441,4.645,4.6474,4.6472,4.6453,4.6465,4.6457,4.6447,4.6449,4.6449,4.645,4.6451,4.6452,4.6454,4.643,4.6405,4.6456,4.6418,4.6448,4.6448,4.6461,4.6461,4.6562,4.6462,4.6462,4.6462,4.6462,0,4.652,4.6545,4.6508,4.6523,4.6549,4.6517,4.6544,4.6533,4.6523,4.6535,4.6501,4.6512,4.6479,4.6487,4.6468,4.649,4.6491,4.6483,4.6477,4.6486,4.6487,4.6488,4.6483,4.6465,4.6464,4.6463,4.6463,0,4.6611,4.6587,4.661,4.659,4.6585,4.6605,4.6587,4.66,4.6583,4.6598,4.66,4.6574,4.6582,4.6557,4.6561,4.6548,4.6581,4.6568,4.6584,4.658,4.6611,4.6609,4.6718,4.673,4.6622,4.6623,4.6624,0,4.6664,4.6682,4.6662,4.6667,4.6661,4.667,4.6672,4.6642,4.6645,4.6636,4.665,4.6654,4.6656,4.667,4.6651,4.6654,4.6641,4.6679,4.6642,4.6649,4.6642,4.6641,4.6643,4.6687,4.6689,4.669,4.6691,0,4.6759,4.6746,4.675,4.675,4.6753,4.6751,4.6748,4.6754,4.6721,4.6726,4.6733,4.6735,4.6738,4.6742,4.6741,4.6733,4.6707,4.6702,4.6709,4.6719,4.6727,4.6723,4.6605,4.67,4.6699,4.6699,4.6698,4.6698,4.6833,4.6846,4.6835,4.684,4.6833,4.683,4.684,4.6825,4.683,4.6829,4.6811,4.6821,4.6811,4.6806,4.6801,4.6808,4.6791,4.6801,4.6804,4.6807,4.6813,4.6725,4.6808,4.6808,4.6807,4.6807,4.6807,0,4.6927,4.6917,4.6922,4.6917,4.6921,4.6894,4.6888,4.6893,4.6903,4.6895,4.6897,4.6905,4.6909,4.689,4.6892,4.6902,4.689,4.6903,4.6902,4.6901,4.6828,4.6822,4.6913,4.6913,4.6913,4.6913,4.6913,4.6913,4.6976,4.6997,4.6983,4.7,4.699,4.6999,4.6998,4.6995,4.6988,4.6998,4.7001,4.6988,4.6976,4.6976,4.6979,4.6973,4.6976,4.6993,4.6984,4.6916,4.6906,4.6896,4.689,4.6994,4.6994,4.7056,4.7057,4.7057]}]]